Year,Month,Day,Hour,Minute,Value (Times are PST for temperature in C)
2015,09,17,08,44,12.30
2015,09,17,08,45,12.30
2015,09,17,08,46,12.30
2015,09,17,08,47,12.40
2015,09,17,08,48,12.40
2015,09,17,08,49,12.40
2015,09,17,08,50,12.40
2015,09,17,08,51,12.40
2015,09,17,08,52,12.40
2015,09,17,08,53,12.40
2015,09,17,08,54,12.40
2015,09,17,08,55,12.40
2015,09,17,08,56,12.40
2015,09,17,08,57,12.40
2015,09,17,08,58,12.40
2015,09,17,08,59,12.50
2015,09,17,09,00,12.50
2015,09,17,09,01,12.50
2015,09,17,09,02,12.50
2015,09,17,09,03,12.50
2015,09,17,09,04,12.50
2015,09,17,09,05,12.50
2015,09,17,09,06,12.60
2015,09,17,09,07,12.60
2015,09,17,09,08,12.60
2015,09,17,09,09,12.60
2015,09,17,09,10,12.50
2015,09,17,09,11,12.50
2015,09,17,09,12,12.50
2015,09,17,09,13,12.50
2015,09,17,09,14,12.50
2015,09,17,09,15,12.50
2015,09,17,09,16,12.50
2015,09,17,09,17,12.50
2015,09,17,09,18,12.60
2015,09,17,09,19,12.60
2015,09,17,09,20,12.60
2015,09,17,09,21,12.60
2015,09,17,09,22,12.60
2015,09,17,09,23,12.60
2015,09,17,09,24,12.60
2015,09,17,09,25,12.50
2015,09,17,09,26,12.50
2015,09,17,09,27,12.50
2015,09,17,09,28,12.50
2015,09,17,09,29,12.50
2015,09,17,09,30,12.50
2015,09,17,09,31,12.50
2015,09,17,09,32,12.50
2015,09,17,09,33,12.50
2015,09,17,09,34,12.50
2015,09,17,09,35,12.50
2015,09,17,09,36,12.50
2015,09,17,09,37,12.50
2015,09,17,09,38,12.50
2015,09,17,09,39,12.60
2015,09,17,09,40,12.60
2015,09,17,09,41,12.60
2015,09,17,09,42,12.60
2015,09,17,09,43,12.60
2015,09,17,09,44,12.60
2015,09,17,09,45,12.60
2015,09,17,09,46,12.60
2015,09,17,09,47,12.60
2015,09,17,09,48,12.60
2015,09,17,09,49,12.60
2015,09,17,09,50,12.60
2015,09,17,09,51,12.60
2015,09,17,09,52,12.60
2015,09,17,09,53,12.70
2015,09,17,09,54,12.70
2015,09,17,09,55,12.70
2015,09,17,09,56,12.70
2015,09,17,09,57,12.70
2015,09,17,09,58,12.70
2015,09,17,09,59,12.70
2015,09,17,10,00,12.70
2015,09,17,10,01,12.70
2015,09,17,10,02,12.80
2015,09,17,10,03,12.80
2015,09,17,10,04,12.80
2015,09,17,10,05,12.70
2015,09,17,10,06,12.70
2015,09,17,10,07,12.70
2015,09,17,10,08,12.70
2015,09,17,10,09,12.70
2015,09,17,10,10,12.70
2015,09,17,10,11,12.80
2015,09,17,10,12,12.80
2015,09,17,10,13,12.80
2015,09,17,10,14,12.80
2015,09,17,10,15,12.80
2015,09,17,10,16,12.80
2015,09,17,10,17,12.80
2015,09,17,10,18,12.80
2015,09,17,10,19,12.80
2015,09,17,10,20,12.80
2015,09,17,10,21,12.80
2015,09,17,10,22,12.80
2015,09,17,10,23,12.80
2015,09,17,10,24,12.80
2015,09,17,10,25,12.80
2015,09,17,10,26,12.80
2015,09,17,10,27,12.80
2015,09,17,10,28,12.90
2015,09,17,10,29,12.90
2015,09,17,10,30,12.90
2015,09,17,10,31,12.90
2015,09,17,10,32,12.90
2015,09,17,10,33,12.90
2015,09,17,10,34,12.90
2015,09,17,10,35,12.80
2015,09,17,10,36,12.80
2015,09,17,10,37,12.80
2015,09,17,10,38,12.80
2015,09,17,10,39,12.80
2015,09,17,10,40,12.80
2015,09,17,10,41,12.80
2015,09,17,10,42,12.80
2015,09,17,10,43,12.80
2015,09,17,10,44,12.90
2015,09,17,10,45,12.90
2015,09,17,10,46,12.90
2015,09,17,10,47,12.90
2015,09,17,10,48,12.90
2015,09,17,10,49,12.90
2015,09,17,10,50,12.90
2015,09,17,10,51,12.90
2015,09,17,10,52,12.90
2015,09,17,10,53,12.90
2015,09,17,10,54,12.90
2015,09,17,10,55,12.90
2015,09,17,10,56,12.90
2015,09,17,10,57,12.90
2015,09,17,10,58,13.00
2015,09,17,10,59,13.00
2015,09,17,11,00,13.10
2015,09,17,11,01,13.10
2015,09,17,11,02,13.10
2015,09,17,11,03,13.20
2015,09,17,11,04,13.20
2015,09,17,11,05,13.30
2015,09,17,11,06,13.30
2015,09,17,11,07,13.40
2015,09,17,11,08,13.40
2015,09,17,11,09,13.40
2015,09,17,11,10,13.40
2015,09,17,11,11,13.50
2015,09,17,11,12,13.50
2015,09,17,11,13,13.50
2015,09,17,11,14,13.50
2015,09,17,11,15,13.60
2015,09,17,11,16,13.60
2015,09,17,11,17,13.60
2015,09,17,11,18,13.60
2015,09,17,11,19,13.60
2015,09,17,11,20,13.60
2015,09,17,11,21,13.70
2015,09,17,11,22,13.70
2015,09,17,11,23,13.70
2015,09,17,11,24,13.70
2015,09,17,11,25,13.70
2015,09,17,11,26,13.70
2015,09,17,11,27,13.80
2015,09,17,11,28,13.80
2015,09,17,11,29,13.80
2015,09,17,11,30,13.90
2015,09,17,11,31,14.00
2015,09,17,11,32,14.10
2015,09,17,11,33,14.10
2015,09,17,11,34,14.20
2015,09,17,11,35,14.20
2015,09,17,11,36,14.20
2015,09,17,11,37,14.20
2015,09,17,11,38,14.20
2015,09,17,11,39,14.20
2015,09,17,11,40,14.10
2015,09,17,11,41,14.10
2015,09,17,11,42,14.10
2015,09,17,11,43,14.10
2015,09,17,11,44,14.10
2015,09,17,11,45,14.10
2015,09,17,11,46,14.10
2015,09,17,11,47,14.20
2015,09,17,11,48,14.20
2015,09,17,11,49,14.30
2015,09,17,11,50,14.30
2015,09,17,11,51,14.40
2015,09,17,11,52,14.50
2015,09,17,11,53,14.60
2015,09,17,11,54,14.70
2015,09,17,11,55,14.70
2015,09,17,11,56,14.80
2015,09,17,11,57,14.80
2015,09,17,11,58,14.90
2015,09,17,11,59,14.90
2015,09,17,12,00,14.90
2015,09,17,12,01,15.00
2015,09,17,12,02,15.00
2015,09,17,12,03,15.10
2015,09,17,12,04,15.20
2015,09,17,12,05,15.20
2015,09,17,12,06,15.30
2015,09,17,12,07,15.40
2015,09,17,12,08,15.40
2015,09,17,12,09,15.40
2015,09,17,12,10,15.40
2015,09,17,12,11,15.30
2015,09,17,12,12,15.10
2015,09,17,12,13,15.00
2015,09,17,12,14,14.80
2015,09,17,12,15,14.70
2015,09,17,12,16,14.50
2015,09,17,12,17,14.50
2015,09,17,12,18,14.40
2015,09,17,12,19,14.40
2015,09,17,12,20,14.40
2015,09,17,12,21,14.50
2015,09,17,12,22,14.60
2015,09,17,12,23,14.60
2015,09,17,12,24,14.70
2015,09,17,12,25,14.80
2015,09,17,12,26,14.90
2015,09,17,12,27,15.00
2015,09,17,12,28,15.10
2015,09,17,12,29,15.20
2015,09,17,12,30,15.30
2015,09,17,12,31,15.40
2015,09,17,12,32,15.40
2015,09,17,12,33,15.40
2015,09,17,12,34,15.40
2015,09,17,12,35,15.40
2015,09,17,12,36,15.40
2015,09,17,12,37,15.40
2015,09,17,12,38,15.40
2015,09,17,12,39,15.40
2015,09,17,12,40,15.40
2015,09,17,12,41,15.40
2015,09,17,12,42,15.50
2015,09,17,12,43,15.60
2015,09,17,12,44,15.70
2015,09,17,12,45,15.70
2015,09,17,12,46,15.80
2015,09,17,12,47,15.80
2015,09,17,12,48,15.90
2015,09,17,12,49,15.90
2015,09,17,12,50,16.00
2015,09,17,12,51,16.10
2015,09,17,12,52,16.20
2015,09,17,12,53,16.20
2015,09,17,12,54,16.30
2015,09,17,12,55,16.20
2015,09,17,12,56,16.20
2015,09,17,12,57,16.20
2015,09,17,12,58,16.30
2015,09,17,12,59,16.30
2015,09,17,13,00,16.30
2015,09,17,13,01,16.40
2015,09,17,13,02,16.40
2015,09,17,13,03,16.40
2015,09,17,13,04,16.50
2015,09,17,13,05,16.50
2015,09,17,13,06,16.50
2015,09,17,13,07,16.40
2015,09,17,13,08,16.30
2015,09,17,13,09,16.20
2015,09,17,13,10,16.20
2015,09,17,13,11,16.10
2015,09,17,13,12,16.00
2015,09,17,13,13,16.00
2015,09,17,13,14,15.90
2015,09,17,13,15,15.90
2015,09,17,13,16,15.90
2015,09,17,13,17,15.90
2015,09,17,13,18,15.90
2015,09,17,13,19,15.90
2015,09,17,13,20,16.00
2015,09,17,13,21,16.00
2015,09,17,13,22,16.10
2015,09,17,13,23,16.10
2015,09,17,13,24,16.10
2015,09,17,13,25,16.10
2015,09,17,13,26,16.00
2015,09,17,13,27,16.00
2015,09,17,13,28,15.90
2015,09,17,13,29,15.90
2015,09,17,13,30,15.80
2015,09,17,13,31,15.90
2015,09,17,13,32,15.90
2015,09,17,13,33,15.90
2015,09,17,13,34,15.90
2015,09,17,13,35,15.90
2015,09,17,13,36,15.90
2015,09,17,13,37,15.90
2015,09,17,13,38,15.90
2015,09,17,13,39,15.90
2015,09,17,13,40,15.90
2015,09,17,13,41,15.90
2015,09,17,13,42,15.90
2015,09,17,13,43,15.90
2015,09,17,13,44,15.90
2015,09,17,13,45,15.80
2015,09,17,13,46,15.80
2015,09,17,13,47,15.80
2015,09,17,13,48,15.80
2015,09,17,13,49,15.80
2015,09,17,13,50,15.80
2015,09,17,13,51,15.80
2015,09,17,13,52,15.80
2015,09,17,13,53,15.80
2015,09,17,13,54,15.70
2015,09,17,13,55,15.70
2015,09,17,13,56,15.60
2015,09,17,13,57,15.60
2015,09,17,13,58,15.60
2015,09,17,13,59,15.50
2015,09,17,14,00,15.50
2015,09,17,14,01,15.50
2015,09,17,14,02,15.50
2015,09,17,14,03,15.50
2015,09,17,14,04,15.50
2015,09,17,14,05,15.50
2015,09,17,14,06,15.60
2015,09,17,14,07,15.60
2015,09,17,14,08,15.60
2015,09,17,14,09,15.60
2015,09,17,14,10,15.60
2015,09,17,14,11,15.70
2015,09,17,14,12,15.70
2015,09,17,14,13,15.70
2015,09,17,14,14,15.70
2015,09,17,14,15,15.60
2015,09,17,14,16,15.60
2015,09,17,14,17,15.60
2015,09,17,14,18,15.60
2015,09,17,14,19,15.60
2015,09,17,14,20,15.60
2015,09,17,14,21,15.60
2015,09,17,14,22,15.60
2015,09,17,14,23,15.60
2015,09,17,14,24,15.60
2015,09,17,14,25,15.50
2015,09,17,14,26,15.50
2015,09,17,14,27,15.50
2015,09,17,14,28,15.50
2015,09,17,14,29,15.50
2015,09,17,14,30,15.50
2015,09,17,14,31,15.50
2015,09,17,14,32,15.50
2015,09,17,14,33,15.50
2015,09,17,14,34,15.50
2015,09,17,14,35,15.60
2015,09,17,14,36,15.60
2015,09,17,14,37,15.60
2015,09,17,14,38,15.60
2015,09,17,14,39,15.60
2015,09,17,14,40,15.60
2015,09,17,14,41,15.60
2015,09,17,14,42,15.60
2015,09,17,14,43,15.60
2015,09,17,14,44,15.60
2015,09,17,14,45,15.70
2015,09,17,14,46,15.70
2015,09,17,14,47,15.80
2015,09,17,14,48,15.80
2015,09,17,14,49,15.80
2015,09,17,14,50,15.90
2015,09,17,14,51,15.90
2015,09,17,14,52,15.90
2015,09,17,14,53,15.90
2015,09,17,14,54,15.90
2015,09,17,14,55,15.90
2015,09,17,14,56,15.90
2015,09,17,14,57,15.90
2015,09,17,14,58,15.90
2015,09,17,14,59,15.90
2015,09,17,15,00,15.90
2015,09,17,15,01,15.90
2015,09,17,15,02,15.90
2015,09,17,15,03,15.90
2015,09,17,15,04,15.90
2015,09,17,15,05,15.90
2015,09,17,15,06,15.90
2015,09,17,15,07,15.90
2015,09,17,15,08,15.90
2015,09,17,15,09,15.90
2015,09,17,15,10,16.00
2015,09,17,15,11,16.00
2015,09,17,15,12,16.10
2015,09,17,15,13,16.10
2015,09,17,15,14,16.20
2015,09,17,15,15,16.20
2015,09,17,15,16,16.20
2015,09,17,15,17,16.30
2015,09,17,15,18,16.30
2015,09,17,15,19,16.30
2015,09,17,15,20,16.40
2015,09,17,15,21,16.40
2015,09,17,15,22,16.40
2015,09,17,15,23,16.40
2015,09,17,15,24,16.40
2015,09,17,15,25,16.40
2015,09,17,15,26,16.40
2015,09,17,15,27,16.40
2015,09,17,15,28,16.40
2015,09,17,15,29,16.40
2015,09,17,15,30,16.50
2015,09,17,15,31,16.40
2015,09,17,15,32,16.40
2015,09,17,15,33,16.40
2015,09,17,15,34,16.40
2015,09,17,15,35,16.40
2015,09,17,15,36,16.30
2015,09,17,15,37,16.30
2015,09,17,15,38,16.20
2015,09,17,15,39,16.20
2015,09,17,15,40,16.20
2015,09,17,15,41,16.20
2015,09,17,15,42,16.10
2015,09,17,15,43,16.10
2015,09,17,15,44,16.10
2015,09,17,15,45,16.10
2015,09,17,15,46,16.10
2015,09,17,15,47,16.10
2015,09,17,15,48,16.00
2015,09,17,15,49,16.00
2015,09,17,15,50,16.00
2015,09,17,15,51,15.90
2015,09,17,15,52,15.90
2015,09,17,15,53,15.90
2015,09,17,15,54,15.80
2015,09,17,15,55,15.80
2015,09,17,15,56,15.80
2015,09,17,15,57,15.70
2015,09,17,15,58,15.60
2015,09,17,15,59,15.60
2015,09,17,16,00,15.50
2015,09,17,16,01,15.50
2015,09,17,16,02,15.40
2015,09,17,16,03,15.40
2015,09,17,16,04,15.40
2015,09,17,16,05,15.40
2015,09,17,16,06,15.30
2015,09,17,16,07,15.30
2015,09,17,16,08,15.30
2015,09,17,16,09,15.30
2015,09,17,16,10,15.30
2015,09,17,16,11,15.20
2015,09,17,16,12,15.20
2015,09,17,16,13,15.20
2015,09,17,16,14,15.20
2015,09,17,16,15,15.20
2015,09,17,16,16,15.10
2015,09,17,16,17,15.10
2015,09,17,16,18,15.10
2015,09,17,16,19,15.10
2015,09,17,16,20,15.10
2015,09,17,16,21,15.00
2015,09,17,16,22,15.00
2015,09,17,16,23,14.90
2015,09,17,16,24,14.90
2015,09,17,16,25,14.80
2015,09,17,16,26,14.80
2015,09,17,16,27,14.70
2015,09,17,16,28,14.70
2015,09,17,16,29,14.70
2015,09,17,16,30,14.60
2015,09,17,16,31,14.50
2015,09,17,16,32,14.40
2015,09,17,16,33,14.40
2015,09,17,16,34,14.40
2015,09,17,16,35,14.30
2015,09,17,16,36,14.30
2015,09,17,16,37,14.30
2015,09,17,16,38,14.30
2015,09,17,16,39,14.30
2015,09,17,16,40,14.30
2015,09,17,16,41,14.40
2015,09,17,16,42,14.40
2015,09,17,16,43,14.40
2015,09,17,16,44,14.50
2015,09,17,16,45,14.60
2015,09,17,16,46,14.70
2015,09,17,16,47,14.80
2015,09,17,16,48,14.90
2015,09,17,16,49,15.00
2015,09,17,16,50,15.10
2015,09,17,16,51,15.10
2015,09,17,16,52,15.10
2015,09,17,16,53,15.20
2015,09,17,16,54,15.20
2015,09,17,16,55,15.20
2015,09,17,16,56,15.30
2015,09,17,16,57,15.30
2015,09,17,16,58,15.30
2015,09,17,16,59,15.30
2015,09,17,17,00,15.40
2015,09,17,17,01,15.40
2015,09,17,17,02,15.40
2015,09,17,17,03,15.40
2015,09,17,17,04,15.40
2015,09,17,17,05,15.40
2015,09,17,17,06,15.40
2015,09,17,17,07,15.40
2015,09,17,17,08,15.40
2015,09,17,17,09,15.30
2015,09,17,17,10,15.30
2015,09,17,17,11,15.30
2015,09,17,17,12,15.20
2015,09,17,17,13,15.20
2015,09,17,17,14,15.20
2015,09,17,17,15,15.10
2015,09,17,17,16,15.10
2015,09,17,17,17,15.10
2015,09,17,17,18,15.10
2015,09,17,17,19,15.10
2015,09,17,17,20,15.10
2015,09,17,17,21,15.10
2015,09,17,17,22,15.10
2015,09,17,17,23,15.10
2015,09,17,17,24,15.10
2015,09,17,17,25,15.10
2015,09,17,17,26,15.10
2015,09,17,17,27,15.10
2015,09,17,17,28,15.10
2015,09,17,17,29,15.10
2015,09,17,17,30,15.10
2015,09,17,17,31,15.20
2015,09,17,17,32,15.20
2015,09,17,17,33,15.10
2015,09,17,17,34,15.10
2015,09,17,17,35,15.10
2015,09,17,17,36,15.10
2015,09,17,17,37,15.10
2015,09,17,17,38,15.10
2015,09,17,17,39,15.10
2015,09,17,17,40,15.10
2015,09,17,17,41,15.10
2015,09,17,17,42,15.10
2015,09,17,17,43,15.10
2015,09,17,17,44,15.10
2015,09,17,17,45,15.10
2015,09,17,17,46,15.10
2015,09,17,17,47,15.10
2015,09,17,17,48,15.10
2015,09,17,17,49,15.10
2015,09,17,17,50,15.10
2015,09,17,17,51,15.20
2015,09,17,17,52,15.20
2015,09,17,17,53,15.20
2015,09,17,17,54,15.10
2015,09,17,17,55,15.10
2015,09,17,17,56,15.10
2015,09,17,17,57,15.10
2015,09,17,17,58,15.10
2015,09,17,17,59,15.10
2015,09,17,18,00,15.00
2015,09,17,18,01,15.00
2015,09,17,18,02,15.00
2015,09,17,18,03,15.00
2015,09,17,18,04,14.90
2015,09,17,18,05,14.90
2015,09,17,18,06,14.90
2015,09,17,18,07,14.90
2015,09,17,18,08,15.00
2015,09,17,18,09,14.90
2015,09,17,18,10,14.90
2015,09,17,18,11,14.90
2015,09,17,18,12,14.90
2015,09,17,18,13,15.00
2015,09,17,18,14,15.00
2015,09,17,18,15,15.00
2015,09,17,18,16,15.00
2015,09,17,18,17,15.00
2015,09,17,18,18,15.00
2015,09,17,18,19,15.00
2015,09,17,18,20,15.00
2015,09,17,18,21,15.00
2015,09,17,18,22,15.00
2015,09,17,18,23,15.00
2015,09,17,18,24,15.00
2015,09,17,18,25,15.00
2015,09,17,18,26,15.00
2015,09,17,18,27,15.00
2015,09,17,18,28,15.00
2015,09,17,18,29,15.00
2015,09,17,18,30,15.00
2015,09,17,18,31,15.00
2015,09,17,18,32,15.00
2015,09,17,18,33,15.00
2015,09,17,18,34,15.00
2015,09,17,18,35,15.00
2015,09,17,18,36,15.00
2015,09,17,18,37,15.00
2015,09,17,18,38,15.00
2015,09,17,18,39,14.90
2015,09,17,18,40,14.90
2015,09,17,18,41,14.90
2015,09,17,18,42,14.90
2015,09,17,18,43,14.90
2015,09,17,18,44,14.90
2015,09,17,18,45,14.80
2015,09,17,18,46,14.80
2015,09,17,18,47,14.80
2015,09,17,18,48,14.80
2015,09,17,18,49,14.80
2015,09,17,18,50,14.70
2015,09,17,18,51,14.70
2015,09,17,18,52,14.70
2015,09,17,18,53,14.70
2015,09,17,18,54,14.60
2015,09,17,18,55,14.60
2015,09,17,18,56,14.60
2015,09,17,18,57,14.50
2015,09,17,18,58,14.50
2015,09,17,18,59,14.40
2015,09,17,19,00,14.40
2015,09,17,19,01,14.30
2015,09,17,19,02,14.30
2015,09,17,19,03,14.30
2015,09,17,19,04,14.30
2015,09,17,19,05,14.20
2015,09,17,19,06,14.20
2015,09,17,19,07,14.10
2015,09,17,19,08,14.10
2015,09,17,19,09,14.10
2015,09,17,19,10,14.10
2015,09,17,19,11,14.00
2015,09,17,19,12,14.00
2015,09,17,19,13,13.90
2015,09,17,19,14,13.90
2015,09,17,19,15,13.90
2015,09,17,19,16,13.90
2015,09,17,19,17,13.90
2015,09,17,19,18,13.80
2015,09,17,19,19,13.80
2015,09,17,19,20,13.80
2015,09,17,19,21,13.80
2015,09,17,19,22,13.70
2015,09,17,19,23,13.70
2015,09,17,19,24,13.70
2015,09,17,19,25,13.70
2015,09,17,19,26,13.60
2015,09,17,19,27,13.60
2015,09,17,19,28,13.60
2015,09,17,19,29,13.50
2015,09,17,19,30,13.50
2015,09,17,19,31,13.40
2015,09,17,19,32,13.40
2015,09,17,19,33,13.40
2015,09,17,19,34,13.40
2015,09,17,19,35,13.30
2015,09,17,19,36,13.30
2015,09,17,19,37,13.30
2015,09,17,19,38,13.30
2015,09,17,19,39,13.30
2015,09,17,19,40,13.20
2015,09,17,19,41,13.20
2015,09,17,19,42,13.20
2015,09,17,19,43,13.20
2015,09,17,19,44,13.20
2015,09,17,19,45,13.20
2015,09,17,19,46,13.20
2015,09,17,19,47,13.10
2015,09,17,19,48,13.10
2015,09,17,19,49,13.10
2015,09,17,19,50,13.10
2015,09,17,19,51,13.10
2015,09,17,19,52,13.10
2015,09,17,19,53,13.10
2015,09,17,19,54,13.10
2015,09,17,19,55,13.10
2015,09,17,19,56,13.00
2015,09,17,19,57,13.00
2015,09,17,19,58,13.00
2015,09,17,19,59,13.00
2015,09,17,20,00,12.90
2015,09,17,20,01,12.90
2015,09,17,20,02,12.90
2015,09,17,20,03,12.90
2015,09,17,20,04,12.90
2015,09,17,20,05,12.80
2015,09,17,20,06,12.80
2015,09,17,20,07,12.80
2015,09,17,20,08,12.80
2015,09,17,20,09,12.80
2015,09,17,20,10,12.80
2015,09,17,20,11,12.70
2015,09,17,20,12,12.70
2015,09,17,20,13,12.80
2015,09,17,20,14,12.80
2015,09,17,20,15,12.80
2015,09,17,20,16,12.90
2015,09,17,20,17,13.00
2015,09,17,20,18,13.10
2015,09,17,20,19,13.10
2015,09,17,20,20,13.10
2015,09,17,20,21,13.10
2015,09,17,20,22,13.10
2015,09,17,20,23,13.20
2015,09,17,20,24,13.20
2015,09,17,20,25,13.20
2015,09,17,20,26,13.20
2015,09,17,20,27,13.10
2015,09,17,20,28,13.10
2015,09,17,20,29,13.10
2015,09,17,20,30,13.00
2015,09,17,20,31,13.00
2015,09,17,20,32,12.90
2015,09,17,20,33,12.90
2015,09,17,20,34,12.80
2015,09,17,20,35,12.80
2015,09,17,20,36,12.80
2015,09,17,20,37,12.80
2015,09,17,20,38,12.80
2015,09,17,20,39,12.80
2015,09,17,20,40,12.80
2015,09,17,20,41,12.80
2015,09,17,20,42,12.80
2015,09,17,20,43,12.90
2015,09,17,20,44,12.90
2015,09,17,20,45,12.90
2015,09,17,20,46,13.00
2015,09,17,20,47,13.00
2015,09,17,20,48,13.10
2015,09,17,20,49,13.10
2015,09,17,20,50,13.00
2015,09,17,20,51,13.00
2015,09,17,20,52,13.00
2015,09,17,20,53,12.90
2015,09,17,20,54,12.90
2015,09,17,20,55,12.90
2015,09,17,20,56,12.90
2015,09,17,20,57,12.90
2015,09,17,20,58,12.90
2015,09,17,20,59,12.90
2015,09,17,21,00,13.00
2015,09,17,21,01,13.00
2015,09,17,21,02,13.00
2015,09,17,21,03,13.00
2015,09,17,21,04,12.90
2015,09,17,21,05,12.90
2015,09,17,21,06,12.90
2015,09,17,21,07,12.90
2015,09,17,21,08,12.90
2015,09,17,21,09,12.90
2015,09,17,21,10,12.90
2015,09,17,21,11,12.90
2015,09,17,21,12,12.90
2015,09,17,21,13,12.90
2015,09,17,21,14,12.90
2015,09,17,21,15,12.90
2015,09,17,21,16,12.80
2015,09,17,21,17,12.80
2015,09,17,21,18,12.80
2015,09,17,21,19,12.70
2015,09,17,21,20,12.70
2015,09,17,21,21,12.70
2015,09,17,21,22,12.70
2015,09,17,21,23,12.70
2015,09,17,21,24,12.70
2015,09,17,21,25,12.80
2015,09,17,21,26,12.80
2015,09,17,21,27,12.90
2015,09,17,21,28,13.00
2015,09,17,21,29,13.10
2015,09,17,21,30,13.20
2015,09,17,21,31,13.20
2015,09,17,21,32,13.30
2015,09,17,21,33,13.20
2015,09,17,21,34,13.20
2015,09,17,21,35,13.20
2015,09,17,21,36,13.10
2015,09,17,21,37,13.00
2015,09,17,21,38,13.00
2015,09,17,21,39,12.90
2015,09,17,21,40,12.80
2015,09,17,21,41,12.80
2015,09,17,21,42,12.70
2015,09,17,21,43,12.70
2015,09,17,21,44,12.70
2015,09,17,21,45,12.70
2015,09,17,21,46,12.60
2015,09,17,21,47,12.60
2015,09,17,21,48,12.50
2015,09,17,21,49,12.50
2015,09,17,21,50,12.40
2015,09,17,21,51,12.40
2015,09,17,21,52,12.40
2015,09,17,21,53,12.40
2015,09,17,21,54,12.40
2015,09,17,21,55,12.40
2015,09,17,21,56,12.40
2015,09,17,21,57,12.30
2015,09,17,21,58,12.30
2015,09,17,21,59,12.30
2015,09,17,22,00,12.30
2015,09,17,22,01,12.20
2015,09,17,22,02,12.20
2015,09,17,22,03,12.20
2015,09,17,22,04,12.30
2015,09,17,22,05,12.30
2015,09,17,22,06,12.30
2015,09,17,22,07,12.30
2015,09,17,22,08,12.30
2015,09,17,22,09,12.30
2015,09,17,22,10,12.40
2015,09,17,22,11,12.50
2015,09,17,22,12,12.60
2015,09,17,22,13,12.70
2015,09,17,22,14,12.80
2015,09,17,22,15,12.90
2015,09,17,22,16,13.10
2015,09,17,22,17,13.20
2015,09,17,22,18,13.30
2015,09,17,22,19,13.40
2015,09,17,22,20,13.40
2015,09,17,22,21,13.50
2015,09,17,22,22,13.60
2015,09,17,22,23,13.60
2015,09,17,22,24,13.70
2015,09,17,22,25,13.70
2015,09,17,22,26,13.70
2015,09,17,22,27,13.80
2015,09,17,22,28,13.80
2015,09,17,22,29,13.80
2015,09,17,22,30,13.80
2015,09,17,22,31,13.80
2015,09,17,22,32,13.80
2015,09,17,22,33,13.80
2015,09,17,22,34,13.80
2015,09,17,22,35,13.80
2015,09,17,22,36,13.80
2015,09,17,22,37,13.70
2015,09,17,22,38,13.70
2015,09,17,22,39,13.80
2015,09,17,22,40,13.80
2015,09,17,22,41,13.80
2015,09,17,22,42,13.70
2015,09,17,22,43,13.70
2015,09,17,22,44,13.70
2015,09,17,22,45,13.70
2015,09,17,22,46,13.70
2015,09,17,22,47,13.70
2015,09,17,22,48,13.70
2015,09,17,22,49,13.60
2015,09,17,22,50,13.60
2015,09,17,22,51,13.60
2015,09,17,22,52,13.60
2015,09,17,22,53,13.60
2015,09,17,22,54,13.60
2015,09,17,22,55,13.60
2015,09,17,22,56,13.50
2015,09,17,22,57,13.50
2015,09,17,22,58,13.50
2015,09,17,22,59,13.40
2015,09,17,23,00,13.40
2015,09,17,23,01,13.40
2015,09,17,23,02,13.40
2015,09,17,23,03,13.40
2015,09,17,23,04,13.40
2015,09,17,23,05,13.40
2015,09,17,23,06,13.40
2015,09,17,23,07,13.30
2015,09,17,23,08,13.30
2015,09,17,23,09,13.30
2015,09,17,23,10,13.30
2015,09,17,23,11,13.30
2015,09,17,23,12,13.30
2015,09,17,23,13,13.30
2015,09,17,23,14,13.30
2015,09,17,23,15,13.30
2015,09,17,23,16,13.30
2015,09,17,23,17,13.30
2015,09,17,23,18,13.30
2015,09,17,23,19,13.20
2015,09,17,23,20,13.20
2015,09,17,23,21,13.20
2015,09,17,23,22,13.20
2015,09,17,23,23,13.20
2015,09,17,23,24,13.20
2015,09,17,23,25,13.20
2015,09,17,23,26,13.20
2015,09,17,23,27,13.20
2015,09,17,23,28,13.20
2015,09,17,23,29,13.20
2015,09,17,23,30,13.20
2015,09,17,23,31,13.20
2015,09,17,23,32,13.20
2015,09,17,23,33,13.20
2015,09,17,23,34,13.20
2015,09,17,23,35,13.20
2015,09,17,23,36,13.20
2015,09,17,23,37,13.20
2015,09,17,23,38,13.20
2015,09,17,23,39,13.20
2015,09,17,23,40,13.20
2015,09,17,23,41,13.20
2015,09,17,23,42,13.20
2015,09,17,23,43,13.20
2015,09,17,23,44,13.20
2015,09,17,23,45,13.20
2015,09,17,23,46,13.20
2015,09,17,23,47,13.20
